EW6136 Nykabing Mors DK current weather conditions

sailwx.info

Wind from 222 at 1 knots gusting 7

Air temperature 17.2° C
Dewpoint 0.4° C

Last reported at 2020-Aug-05 16:00 UTC.
Time now 2020-Aug-05 16:42 UTC

Location: N 56°50' E 008°39'.
View on Google Maps.

See reports from other nearby stations

  
Tides and Currents Weather Stations Pressure Air Temp Water Temp Dewpoint Dewpoint Depression Visibility Wind Speed Wind Dir Waves Ship Positions
date/time (UTC)wind fromknots sea level pressurealtimeterstation pressurevisibilityair tempwater tempwave heightnotes
2020-Aug-05 16:00 222 1 gusting 7 17.2
2020-Aug-05 15:45 216 0 gusting 5 17.2
2020-Aug-05 15:31 215 1 gusting 8 17.2
2020-Aug-05 15:30 174 0 gusting 8 17.2
2020-Aug-05 15:17 209 0 gusting 6 17.2
2020-Aug-05 15:01 219 2 gusting 6 17.2
2020-Aug-05 14:46 210 1 gusting 8 17.2
2020-Aug-05 14:30 224 0 gusting 7 17.2
2020-Aug-05 14:15 200 0 gusting 7 17.8
2020-Aug-05 14:00 210 1 gusting 8 17.2
2020-Aug-05 13:45 229 2 gusting 7 17.8
2020-Aug-05 13:31 221 2 gusting 8 17.8
2020-Aug-05 13:15 319 2 gusting 10 17.8
2020-Aug-05 13:00 206 2 gusting 11 17.8
2020-Aug-05 12:46 225 1 gusting 6 17.8
2020-Aug-05 12:30 270 1 gusting 10 17.8
2020-Aug-05 12:15 216 3 gusting 8 17.8
2020-Aug-05 12:01 236 1 gusting 11 17.8
2020-Aug-05 11:46 220 1 gusting 10 17.8
2020-Aug-05 11:30 212 3 gusting 11 17.2
2020-Aug-05 11:15 257 2 gusting 9 17.2
2020-Aug-05 11:00 193 1 gusting 6 17.2
2020-Aug-05 10:45 222 1 gusting 6 17.2
2020-Aug-05 10:31 206 2 gusting 7 17.2
2020-Aug-05 10:16 205 2 gusting 8 17.2
2020-Aug-05 10:01 224 1 gusting 7 17.2
2020-Aug-05 09:45 354 0 gusting 6 16.7
2020-Aug-05 09:30 282 1 gusting 6 16.7
2020-Aug-05 09:15 088 1 gusting 9 16.7
2020-Aug-05 09:01 257 0 gusting 7 16.1
2020-Aug-05 08:45 212 0 gusting 6 16.1
2020-Aug-05 08:30 133 16.1
2020-Aug-05 08:15 223 16.1
2020-Aug-05 08:00 234 0 gusting 6 16.1
2020-Aug-05 07:45 174 0 gusting 6 16.1
2020-Aug-05 07:31 198 0 gusting 7 16.1
2020-Aug-05 07:16 164 0 gusting 6 15.6
2020-Aug-05 07:00 196 0 gusting 4 15.6
2020-Aug-05 06:45 237 1 gusting 9 15.6
2020-Aug-05 06:30 352 0 gusting 6 15.6
2020-Aug-05 06:01 244 1 gusting 6 15.0
2020-Aug-05 05:45 252 0 gusting 7 15.0
2020-Aug-05 05:30 295 1 gusting 10 14.4
2020-Aug-05 05:15 182 1 gusting 6 14.4
2020-Aug-05 04:46 100 1 gusting 9 14.4
2020-Aug-05 04:31 218 0 gusting 5 14.4
2020-Aug-05 04:16 297 1 gusting 6 14.4
2020-Aug-05 04:01 062 1 gusting 9 13.9
2020-Aug-05 03:45 147 3 gusting 9 13.9
2020-Aug-05 03:30 186 2 gusting 8 13.9
2020-Aug-05 03:17 149 5 gusting 13 13.3
2020-Aug-05 03:01 135 3 gusting 11 13.3
2020-Aug-05 02:46 163 3 gusting 9 13.3
2020-Aug-05 02:30 148 4 gusting 9 13.3
2020-Aug-05 02:15 098 4 gusting 8 13.3
2020-Aug-05 02:00 145 2 gusting 6 13.3
2020-Aug-05 01:47 194 0 gusting 5 13.3
2020-Aug-05 01:31 205 0 gusting 5 13.3
2020-Aug-05 01:17 278 13.9
2020-Aug-05 01:00 217 13.9
2020-Aug-05 00:46 225 13.9
2020-Aug-05 00:31 134 0 gusting 5 13.9
2020-Aug-05 00:16 097 13.9
2020-Aug-05 00:01 237 13.9
2020-Aug-04 23:45 272 13.9
2020-Aug-04 23:30 234 13.9
2020-Aug-04 23:15 129 14.4
2020-Aug-04 23:03 284 14.4
2020-Aug-04 22:46 246 0 gusting 7 14.4
2020-Aug-04 22:30 045 14.4
2020-Aug-04 22:15 249 14.4
2020-Aug-04 22:00 233 13.9
2020-Aug-04 21:47 092 13.9
2020-Aug-04 21:32 257 13.9
2020-Aug-04 21:16 231 13.9
2020-Aug-04 20:45 225 13.9
2020-Aug-04 20:30 283 13.3
2020-Aug-04 20:15 210 13.9
2020-Aug-04 20:00 257 13.9
2020-Aug-04 19:47 216 13.9
2020-Aug-04 19:31 225 13.9
2020-Aug-04 19:15 233 14.4
2020-Aug-04 19:00 242 14.4
2020-Aug-04 18:45 203 14.4
2020-Aug-04 18:30 257 14.4
2020-Aug-04 18:16 230 14.4
2020-Aug-04 18:02 328 0 gusting 5 15.0
2020-Aug-04 17:45 224 0 gusting 5 15.0
2020-Aug-04 17:31 273 15.6
2020-Aug-04 17:15 201 0 gusting 5 15.6
2020-Aug-04 17:00 212 1 gusting 5 16.1
2020-Aug-04 16:46 240 0 gusting 3 16.7
2020-Aug-04 16:30 267 0 gusting 3 16.7
2020-Aug-04 16:15 252 0 gusting 3 16.7
2020-Aug-04 16:00 188 17.2
2020-Aug-04 15:45 270 1 gusting 6 17.8
2020-Aug-04 15:30 217 1 gusting 6 17.8
2020-Aug-04 15:16 307 0 gusting 6 17.2
2020-Aug-04 15:01 222 0 gusting 6 17.2
2020-Aug-04 14:46 207 1 gusting 5 17.2
2020-Aug-04 14:30 235 1 gusting 6 17.8
2020-Aug-04 14:15 136 1 gusting 8 17.8
2020-Aug-04 14:00 222 1 gusting 6 17.8
2020-Aug-04 13:31 211 0 gusting 5 17.8
2020-Aug-04 13:16 280 1 gusting 6 17.8
2020-Aug-04 13:01 161 1 gusting 6 18.3
2020-Aug-04 12:45 217 0 gusting 6 18.9
2020-Aug-04 12:30 231 1 gusting 6 18.3
2020-Aug-04 12:16 200 1 gusting 6 18.3
2020-Aug-04 12:01 327 0 gusting 6 18.3
2020-Aug-04 11:46 300 0 gusting 6 18.3
2020-Aug-04 11:30 314 18.3
2020-Aug-04 11:15 301 2 gusting 9 18.3
2020-Aug-04 11:00 288 1 gusting 7 18.3
2020-Aug-04 10:46 274 18.3
2020-Aug-04 10:45 243 18.3
2020-Aug-04 10:31 297 17.8
2020-Aug-04 10:30 232 0 gusting 5 17.8
2020-Aug-04 10:16 246 0 gusting 3 17.8
2020-Aug-04 10:00 348 0 gusting 6 17.2
2020-Aug-04 09:45 264 0 gusting 5 16.1
2020-Aug-04 09:30 315 0 gusting 3 15.6
2020-Aug-04 09:15 259 0 gusting 4 16.1
2020-Aug-04 09:01 321 0 gusting 3 17.2
2020-Aug-04 08:45 312 17.2
2020-Aug-04 08:30 207 16.7
2020-Aug-04 08:15 206 0 gusting 5 16.7
2020-Aug-04 08:00 219 16.7
2020-Aug-04 07:45 242 16.7
2020-Aug-04 07:30 233 0 gusting 5 16.7
2020-Aug-04 07:17 203 17.2
2020-Aug-04 07:00 293 16.7
2020-Aug-04 06:45 229 16.1
2020-Aug-04 06:30 186 16.1
2020-Aug-04 06:15 216 15.6
2020-Aug-04 06:00 235 15.6
2020-Aug-04 05:45 218 15.0
2020-Aug-04 05:30 208 14.4
2020-Aug-04 05:15 202 13.9
2020-Aug-04 05:00 210 13.3
2020-Aug-04 04:45 214 12.8
2020-Aug-04 04:31 212 11.7
2020-Aug-04 04:16 214 11.7
2020-Aug-04 04:00 217 11.1
2020-Aug-04 03:45 221 10.6
2020-Aug-04 03:30 216 10.6
2020-Aug-04 03:16 214 10.6
2020-Aug-04 03:00 215 10.0
2020-Aug-04 02:46 215 10.6
2020-Aug-04 02:30 215 10.6
2020-Aug-04 02:15 210 10.6
2020-Aug-04 02:00 210 10.6
2020-Aug-04 01:45 210 10.6
2020-Aug-04 01:30 210 10.6
2020-Aug-04 01:15 210 11.1
2020-Aug-04 01:01 210 11.1
2020-Aug-04 00:47 210 11.1
2020-Aug-04 00:31 243 11.7
2020-Aug-04 00:17 243 11.7
2020-Aug-04 00:00 244 11.7
2020-Aug-03 23:46 251 11.7
2020-Aug-03 23:30 246 11.7
2020-Aug-03 23:15 221 11.7
2020-Aug-03 23:01 278 11.7
2020-Aug-03 22:46 266 11.1
2020-Aug-03 22:30 268 11.7
2020-Aug-03 22:15 255 11.7
2020-Aug-03 22:00 245 11.7
2020-Aug-03 21:45 210 11.7
2020-Aug-03 21:31 251 11.7
2020-Aug-03 21:16 260 11.7
2020-Aug-03 21:03 226 11.7
2020-Aug-03 20:46 226 11.7
2020-Aug-03 20:31 210 11.7
2020-Aug-03 20:16 261 11.7
2020-Aug-03 20:01 261 12.2
2020-Aug-03 19:45 261 12.8
2020-Aug-03 19:31 270 12.8
2020-Aug-03 19:18 200 13.3
2020-Aug-03 19:00 262 13.9
2020-Aug-03 18:45 324 13.9
2020-Aug-03 18:31 209 14.4
2020-Aug-03 18:16 203 14.4
2020-Aug-03 18:00 219 0 gusting 6 15.0
2020-Aug-03 17:45 221 15.6
2020-Aug-03 17:31 222 1 gusting 5 16.7
2020-Aug-03 17:16 221 16.7
2020-Aug-03 17:00 298 16.7
2020-Aug-03 16:46 207 1 gusting 6 16.7
2020-Aug-03 16:30 304 0 gusting 5 17.2
2020-Aug-03 16:15 212 0 gusting 6 17.2
2020-Aug-03 16:01 247 0 gusting 8 17.2